Powrót do katalogu

CZ-6A DEB

AktywnyPO
NORAD 54888·DEBRIS·🇨🇳 China

Wystrzelony Nov 11, 2022 z Taiyuan Satellite Launch Center

Loading…

Następne Przeloty (najbliższe 24 godziny)

TLE

ŚwieżeSource: Space-Track

Epoka: Sep 14, 2026, 06:53 UTC

1 54888U 22151PZ  26257.28698063  .00028954  00000-0  20080-2 0  9998
2 54888  98.6360   7.8468 0054139 229.0880 130.5648 15.04357615205170

Śledź CZ-6A DEB w czasie rzeczywistym z AllMySat

Download on the App Store